Lexington, NE

7:51 PM CST on November 11, 2019 (GMT -0600)
Kelly

Weather History for KLXN - June, 2019

Change the Weather History Date:

Saturday, June 8, 2019

  Actual Average Record
Temperature  
Mean Temperature 72 °F -  
Max Temperature 83 °F 76 °F 96 °F (2002)
Min Temperature 61 °F 53 °F 42 °F (2007)
Cooling Degree Days 6    
Growing Degree Days 22 (Base 50)    
Moisture  
Dew Point 62 °F    
Average Humidity 75    
Maximum Humidity 97    
Minimum Humidity 59    
Precipitation  
Precipitation 0.02 in - - ()
Sea Level Pressure  
Sea Level Pressure 29.87 in    
Wind  
Wind Speed 13 mph (SSE)    
Max Wind Speed 28 mph    
Max Gust Speed 37 mph    
Visibility 10 miles    
Events Rain    
Averages and records for this station are not official NWS values.
T = Trace of Precipitation, MM = Missing Value Source: NWS Daily Summary

Daily Weather History Graph

Daily Weather History Graph

Search for Another Location

Airport or City:

Astronomy

Jun. 08, 2019 Rise Set
Actual Time 6:07 AM CDT 9:08 PM CDT
Civil Twilight 5:34 AM CDT 9:42 PM CDT
Nautical Twilight 4:52 AM CDT 10:24 PM CDT
Astronomical Twilight 4:03 AM CDT 11:13 PM CDT
Moon 11:38 AM CDT (6/8) 1:11 AM CDT (6/8)
Length of Visible Light 16h 07m
Length of Day
15h 01m
Waxing Crescent, 33% of the Moon is Illuminated
Jun 8
Waxing Crescent
Jun 10
First Quarter
Jun 17
Full
Jun 25
Last Quarter
Jul 2
New

Hourly Weather History & Observations

Time (CDT) Temp. Heat Index Dew Point Humidity Pressure Visibility Wind Dir Wind Speed Gust Speed Precip Events Conditions
12:15 AM 68.5 °F - 60.1 °F 74% 29.88 in 10.0 mi SSE 10.4 mph - N/A   Clear
12:35 AM 67.6 °F - 60.3 °F 77% 29.89 in 10.0 mi SSE 9.2 mph - N/A   Clear
12:55 AM 67.5 °F - 59.9 °F 77% 29.88 in 10.0 mi South 10.4 mph - N/A   Clear
1:15 AM 67.1 °F - 59.2 °F 76% 29.87 in 10.0 mi SSE 10.4 mph - N/A   Clear
1:35 AM 67.6 °F - 59.0 °F 74% 29.87 in 10.0 mi SSE 11.5 mph - N/A   Clear
1:55 AM 66.7 °F - 58.8 °F 76% 29.90 in 10.0 mi SSW 9.2 mph - N/A   Clear
2:15 AM 67.1 °F - 58.6 °F 74% 29.90 in 10.0 mi South 10.4 mph - N/A   Clear
2:35 AM 67.5 °F - 58.5 °F 73% 29.88 in 10.0 mi South 11.5 mph - N/A   Clear
2:55 AM 66.7 °F - 58.5 °F 75% 29.87 in 10.0 mi SSE 10.4 mph - N/A   Clear
3:15 AM 65.3 °F - 58.8 °F 80% 29.86 in 10.0 mi SSE 12.7 mph - N/A   Clear
3:35 AM 64.8 °F - 59.0 °F 82% 29.85 in 10.0 mi SSE 11.5 mph - N/A   Clear
3:55 AM 66.0 °F - 58.5 °F 77% 29.84 in 10.0 mi SSE 11.5 mph 18.4 mph N/A   Clear
4:15 AM 65.3 °F - 58.6 °F 79% 29.86 in 10.0 mi South 9.2 mph - N/A   Clear
4:35 AM 64.6 °F - 58.5 °F 80% 29.86 in 10.0 mi South 9.2 mph - N/A   Clear
4:55 AM 63.7 °F - 58.3 °F 83% 29.86 in 10.0 mi South 6.9 mph - N/A   Clear
5:15 AM 63.5 °F - 58.3 °F 83% 29.85 in 10.0 mi SSE 10.4 mph - N/A   Clear
5:35 AM 62.8 °F - 58.6 °F 86% 29.85 in 10.0 mi SSE 6.9 mph - N/A   Clear
5:55 AM 62.6 °F - 58.6 °F 87% 29.85 in 10.0 mi SSE 9.2 mph - N/A   Clear
6:15 AM 63.0 °F - 58.8 °F 86% 29.85 in 10.0 mi SSE 11.5 mph - N/A   Clear
6:35 AM 63.7 °F - 59.0 °F 85% 29.85 in 10.0 mi SSE 11.5 mph - N/A   Clear
6:55 AM 64.0 °F - 59.2 °F 84% 29.85 in 10.0 mi SE 11.5 mph - N/A   Clear
7:15 AM 64.6 °F - 59.5 °F 84% 29.85 in 10.0 mi SSE 9.2 mph - N/A   Clear
7:35 AM 65.5 °F - 59.9 °F 82% 29.86 in 10.0 mi SSE 6.9 mph - N/A   Clear
7:55 AM 68.7 °F - 60.6 °F 75% 29.86 in 10.0 mi South 13.8 mph 19.6 mph N/A   Clear
8:15 AM 69.3 °F - 61.0 °F 75% 29.86 in 10.0 mi South 15.0 mph - N/A   Clear
8:35 AM 69.8 °F - 61.9 °F 76% 29.87 in 10.0 mi South 13.8 mph 19.6 mph N/A   Clear
8:55 AM 70.2 °F - 62.1 °F 75% 29.88 in 10.0 mi South 17.3 mph 23.0 mph N/A   Clear
9:15 AM 71.8 °F - 63.0 °F 74% 29.88 in 10.0 mi South 18.4 mph 21.9 mph N/A   Clear
9:35 AM 74.1 °F - 64.8 °F 72% 29.89 in 10.0 mi South 18.4 mph 21.9 mph N/A   Clear
9:55 AM 72.9 °F - 63.1 °F 71% 29.89 in 10.0 mi South 19.6 mph 26.5 mph N/A   Clear
10:15 AM 73.2 °F - 63.5 °F 71% 29.88 in 10.0 mi South 16.1 mph 26.5 mph N/A   Clear
10:35 AM 75.2 °F - 63.9 °F 68% 29.88 in 10.0 mi SSE 23.0 mph 27.6 mph N/A   Clear
10:55 AM 76.5 °F - 64.4 °F 66% 29.87 in 10.0 mi South 24.2 mph 31.1 mph N/A   Clear
11:15 AM 77.7 °F - 64.4 °F 63% 29.86 in 10.0 mi South 25.3 mph 32.2 mph N/A   Clear
11:35 AM 77.9 °F - 64.2 °F 63% 29.86 in 10.0 mi SSE 19.6 mph 26.5 mph N/A   Clear
11:55 AM 77.9 °F - 64.4 °F 63% 29.86 in 10.0 mi SSE 21.9 mph 28.8 mph N/A   Scattered Clouds
12:15 PM 77.2 °F - 63.7 °F 63% 29.86 in 10.0 mi SSE 17.3 mph 25.3 mph N/A   Mostly Cloudy
12:35 PM 77.4 °F - 64.0 °F 63% 29.85 in 10.0 mi SSE 20.7 mph 26.5 mph N/A   Overcast
12:55 PM 78.4 °F - 64.9 °F 63% 29.85 in 10.0 mi SSE 19.6 mph 24.2 mph N/A   Overcast
1:15 PM 77.9 °F - 64.8 °F 64% 29.85 in 10.0 mi SSE 18.4 mph 26.5 mph N/A   Overcast
1:35 PM 78.3 °F - 64.8 °F 63% 29.85 in 10.0 mi SSE 19.6 mph 27.6 mph N/A   Overcast
1:55 PM 77.5 °F - 64.9 °F 65% 29.85 in 10.0 mi SSE 17.3 mph 23.0 mph N/A   Overcast
2:15 PM 77.4 °F - 64.9 °F 65% 29.85 in 10.0 mi SSE 12.7 mph 23.0 mph N/A   Overcast
2:35 PM 78.4 °F - 65.5 °F 64% 29.85 in 10.0 mi South 15.0 mph 21.9 mph N/A   Overcast
2:55 PM 79.3 °F - 65.7 °F 63% 29.84 in 10.0 mi South 16.1 mph 21.9 mph N/A   Overcast
3:15 PM 79.2 °F - 65.8 °F 64% 29.84 in 10.0 mi SSE 13.8 mph 21.9 mph N/A   Overcast
3:35 PM 79.2 °F - 66.0 °F 64% 29.84 in 10.0 mi South 15.0 mph 20.7 mph N/A   Overcast
3:55 PM 79.7 °F - 66.4 °F 64% 29.83 in 10.0 mi SSE 15.0 mph 19.6 mph N/A   Overcast
4:15 PM 79.7 °F - 66.4 °F 64% 29.81 in 10.0 mi SSE 19.6 mph 23.0 mph N/A   Mostly Cloudy
4:35 PM 80.2 °F 82.3 °F 66.2 °F 62% 29.79 in 10.0 mi South 18.4 mph 25.3 mph N/A   Scattered Clouds
4:55 PM 82.9 °F 85.6 °F 67.3 °F 59% 29.79 in 10.0 mi SSE 19.6 mph 26.5 mph N/A   Mostly Cloudy
5:15 PM 80.2 °F 82.3 °F 66.0 °F 62% 29.79 in 10.0 mi SSE 20.7 mph - N/A   Overcast
5:35 PM 82.2 °F 84.7 °F 67.1 °F 60% 29.79 in 10.0 mi South 17.3 mph - N/A   Overcast
5:55 PM 81.3 °F 83.6 °F 66.9 °F 61% 29.79 in 10.0 mi SSE 17.3 mph - N/A   Overcast
6:15 PM 80.1 °F 82.0 °F 65.5 °F 61% 29.78 in 10.0 mi SSE 12.7 mph - N/A   Overcast
6:35 PM 79.5 °F - 65.1 °F 61% 29.82 in 10.0 mi SSE 15.0 mph 21.9 mph N/A   Overcast
6:55 PM 79.5 °F - 64.6 °F 60% 29.84 in 10.0 mi SE 13.8 mph - N/A   Mostly Cloudy
7:15 PM 79.0 °F - 64.4 °F 61% 29.84 in 10.0 mi SE 11.5 mph - N/A   Scattered Clouds
7:35 PM 78.3 °F - 64.2 °F 62% 29.85 in 10.0 mi SSE 11.5 mph 19.6 mph N/A Rain Light Rain
7:55 PM 66.7 °F - 60.6 °F 81% 29.89 in 10.0 mi NW 27.6 mph 36.8 mph N/A Rain Light Rain
8:15 PM 65.1 °F - 59.7 °F 83% 29.90 in 10.0 mi NW 9.2 mph - N/A Rain Light Rain
8:35 PM 64.8 °F - 60.8 °F 87% 29.87 in 10.0 mi SE 9.2 mph - 0.01 in Rain Rain
8:55 PM 64.9 °F - 61.9 °F 90% 29.90 in 10.0 mi SE 16.1 mph 19.6 mph 0.02 in Rain Light Rain
9:15 PM 63.7 °F - 61.5 °F 93% 29.87 in 10.0 mi SSE 9.2 mph - N/A   Scattered Clouds
9:35 PM 63.1 °F - 61.7 °F 95% 29.90 in 10.0 mi NW 9.2 mph - N/A   Clear
9:55 PM 63.3 °F - 61.7 °F 94% 29.92 in 10.0 mi North 16.1 mph - N/A   Clear
10:15 PM 62.8 °F - 61.7 °F 96% 29.95 in 10.0 mi North 9.2 mph - N/A   Clear
10:35 PM 63.3 °F - 62.4 °F 97% 29.96 in 10.0 mi North 5.8 mph - N/A   Mostly Cloudy
10:55 PM 63.9 °F - 62.2 °F 94% 29.96 in 10.0 mi NE 11.5 mph - N/A   Mostly Cloudy
11:15 PM 63.3 °F - 61.2 °F 93% 29.99 in 10.0 mi NE 12.7 mph 21.9 mph N/A   Clear
11:35 PM 61.7 °F - 59.9 °F 94% 29.99 in 10.0 mi NNE 17.3 mph 21.9 mph N/A   Mostly Cloudy
11:55 PM 61.0 °F - 59.5 °F 95% 30.00 in 10.0 mi North 15.0 mph 25.3 mph N/A Rain Light Rain